Location: Newark
(49.8969°N, 3.3422°E)
Time: 18:51:54
(UTC+00:00)

deb Explorer IX - Pass Details

Date: 25 January 2020
Orbit: 549 x 1099 km, 38.8° (Epoch: 17 February)

Event Time Altitude Azimuth Distance (km) Brightness Sun altitude
Rises 01:03:53 0° 260° (W) 3,903 - -56.6°
Reaches altitude 10° 01:07:00 10° 250° (WSW) 2,949 - -56.4°
Maximum altitude 01:13:08 30° 193° (SSW) 1,812 - -55.8°
Drops below altitude 10° 01:18:59 10° 135° (SE) 2,799 - -55.3°
Sets 01:21:52 0° 125° (SE) 3,677 - -55.1°
